Home > Time Zones > World Clock > Weather > Spain > Ibiza > Past weeks

Flag Weather past 2 weeks in Ibiza, Ibiza, Spain

Now
68 °F

Passing clouds.


Feels Like: 68 °F
Forecast: 57 / 67 °F
Wind: 12 mph from Southeast

Location: Ibiza / Es Codola

Current Time: Nov 27, 2014 at 1:22:21 PM

Latest Report: Nov 27, 2014 at 1:00 PM


Visibility: N/A

Pressure: 29.68 "Hg

Humidity: 73%

Dew point: 59 °F

Location of IbizaLocation

Historic Weather in Ibiza — Graph

°F

Ibiza temperature yesterday

Maximum temperature yesterday: 68 °F (at 1:30 PM)
Minimum temperature yesterday: 57 °F (at 12:00 AM)
Average temperature yesterday: 63 °F

Past Weeks' High & Low Weather Summary

 TemperatureHumidityPressure
High72 °F (Nov 22, 3:30 PM)100% (Nov 19, 6:00 AM)30.12 "Hg (Nov 19, 6:00 AM)
Low50 °F (Nov 17, 11:30 PM)43% (Nov 15, 8:00 PM)29.71 "Hg (Nov 27, 11:30 AM)
Average64 °F79%29.94 "Hg
* Reported Nov 12 12:00 Noon — Nov 27 12:00 Noon, Ibiza, Weather by CustomWeather, © 2014

Note: Actual official high and low records may vary slightly from our data, if they occured in-between our weather recording intervals... More about our weather records

Advertising

Ibiza weather history for previous 24 hours

 ConditionsComfort  
Time TempWeatherWind HumidityBarometerVisibility
12:00 PM
Nov 27
66 °FPassing clouds.10 mph83%29.71 "HgN/A
11:30 AM66 °FPassing clouds.7 mph68%29.71 "HgN/A
11:00 AM64 °FPassing clouds.10 mph78%29.74 "HgN/A
10:30 AM64 °FScattered clouds.12 mph83%29.74 "HgN/A
10:00 AM64 °FScattered clouds.5 mph88%29.74 "HgN/A
9:30 AM64 °FScattered clouds.5 mph88%29.74 "HgN/A
9:00 AM61 °FPassing clouds.1 mph94%29.74 "Hg6 mi
8:30 AM59 °FPassing clouds.2 mph94%29.74 "Hg6 mi
8:00 AM57 °FPassing clouds.2 mph94%29.74 "HgN/A
7:30 AM55 °FPassing clouds.1 mph100%29.74 "HgN/A
7:00 AM57 °FPassing clouds.1 mph94%29.77 "HgN/A
6:30 AM57 °FPassing clouds.No wind100%29.77 "HgN/A
6:00 AM57 °FPassing clouds.1 mph100%29.77 "HgN/A
5:30 AM59 °FPassing clouds.No wind94%29.77 "HgN/A
12:00 AM63 °FPassing clouds.9 mph88%29.83 "HgN/A
11:30 PM
Nov 26
63 °FPassing clouds.9 mph88%29.83 "HgN/A
11:00 PM63 °FPassing clouds.10 mph88%29.83 "HgN/A
10:30 PM63 °FPassing clouds.8 mph94%29.86 "HgN/A
10:00 PM63 °FPassing clouds.8 mph88%29.86 "HgN/A
9:30 PM63 °FPassing clouds.8 mph94%29.86 "HgN/A
9:00 PM64 °FPartly cloudy.7 mph88%29.86 "HgN/A
8:30 PM63 °FPassing clouds.7 mph94%29.86 "HgN/A
8:00 PM64 °FPassing clouds.7 mph88%29.86 "HgN/A
7:30 PM63 °FPassing clouds.5 mph94%29.86 "HgN/A
7:00 PM63 °FPassing clouds.3 mph88%29.86 "HgN/A
6:30 PM63 °FPassing clouds.5 mph88%29.86 "HgN/A
6:00 PM63 °FPassing clouds.2 mph88%29.86 "HgN/A
5:30 PM63 °FPassing clouds.3 mph88%29.86 "HgN/A
5:00 PM64 °FPassing clouds.6 mph88%29.86 "HgN/A
4:30 PM64 °FPassing clouds.7 mph88%29.86 "HgN/A
4:00 PM66 °FPassing clouds.8 mph83%29.86 "HgN/A
3:30 PM66 °FPassing clouds.9 mph83%29.86 "HgN/A
3:00 PM66 °FPassing clouds.12 mph83%29.86 "HgN/A
2:30 PM66 °FPassing clouds.10 mph78%29.86 "HgN/A
2:00 PM66 °FPassing clouds.12 mph83%29.86 "HgN/A
1:30 PM68 °FPassing clouds.10 mph78%29.89 "HgN/A
1:00 PM66 °FScattered clouds.10 mph83%29.89 "HgN/A
Weather by CustomWeather, © 2014

See weather overviewHow to use our weather pages